Overview Statistics Trail Chart Weather Telemetry Raw packets
 

This is the latest recevied weather packets stored in our database for station/object M0TUM-1. If no packets are shown the sender has not sent any weather packets the latest 10 day(s).

<< 110 111 112 113 114 >>
Time Temp. Humidity Pressure Rain* Wind** Luminosity Snow
1787730843 20° C 80% 1014.6 hPa 0 mm - 177 W/m² -
1787730538 20° C 80% 1014.7 hPa 0 mm - 115 W/m² -
1787730236 19.44° C 82% 1014.6 hPa 0 mm - 177 W/m² -
1787729936 19.44° C 83% 1014.8 hPa 0 mm - 147 W/m² -
1787729631 19.44° C 83% 1014.7 hPa 0 mm - 142 W/m² -
1787729326 19.44° C 84% 1014.8 hPa 0 mm - 137 W/m² -
1787729021 19.44° C 84% 1014.6 hPa 0 mm - 131 W/m² -
1787728716 18.89° C 84% 1014.6 hPa 0 mm - 119 W/m² -
1787728413 18.89° C 85% 1014.8 hPa 0 mm - 99 W/m² -
1787728112 18.89° C 85% 1014.3 hPa 0 mm - 95 W/m² -
1787727808 18.89° C 86% 1014.4 hPa 0 mm - 103 W/m² -
1787727506 18.33° C 87% 1014.5 hPa 0 mm - 88 W/m² -
1787727206 18.33° C 87% 1014.4 hPa 0 mm - 95 W/m² -
1787726901 17.78° C 87% 1014.4 hPa 0 mm - 87 W/m² -
1787726596 17.78° C 88% 1014.4 hPa 0 mm - 78 W/m² -
1787726292 17.78° C 88% 1014.6 hPa 0 mm - 60 W/m² -
1787725987 17.78° C 88% 1014.3 hPa 0 mm - 58 W/m² -
1787725683 17.78° C 88% 1014.4 hPa 0 mm - 55 W/m² -
1787725379 17.22° C 88% 1014.4 hPa 0 mm - 53 W/m² -
1787725074 17.22° C 88% 1014.2 hPa 0 mm - 50 W/m² -
1787724774 17.22° C 88% 1014.1 hPa 0 mm - 46 W/m² -
1787724469 17.22° C 88% 1014.3 hPa 0 mm - 42 W/m² -
1787724168 17.22° C 88% 1014.3 hPa 0 mm - 38 W/m² -
1787723864 17.22° C 88% 1014 hPa 0 mm - 35 W/m² -
1787723563 17.22° C 89% 1014.2 hPa 0 mm - 32 W/m² -

* Rain latest hour (hover to see other rain measurements)
** Current wind speed in m/s (hover to see current wind gust speed)